Location: Bow
(51.5261°N, 0.0167°W)
Time: 22:36:10
(UTC+00:00)

CZ-2C R/B - Pass Details

Date: 18 September 2020
Orbit: 785 x 870 km, 98.2° (Epoch: 20 October)

Event Time Altitude Azimuth Distance (km) Brightness Sun altitude
Rises 20:56:16 0° 9° (N) 3,403 6.2 -25.1°
Reaches altitude 10° 20:58:46 10° 2° (N) 2,477 5.6 -25.4°
Maximum altitude 21:03:45 37° 297° (WNW) 1,318 4.2 -26.0°
Drops below altitude 10° 21:08:47 10° 232° (SW) 2,502 5.2 -26.6°
Sets 21:11:20 0° 224° (SW) 3,442 5.9 -26.9°
